User: anonymous   Login
Location: Newark
(34.0131°N, 4.3314°W)
Time: 19:47:02
(UTC+00:00)
Language:

Tiros 1 despin weight - Orbit

View from above orbital plane
View from above orbital plane
View from above satellite
View from above satellite

Ground track
Ground track

The orbit data is extracted from the following two-line orbital elements,

1   115U 60002D   19288.69463468 +.00000079 +00000-0 +36449-4 0  9995
2   115 048.1683 015.9063 0035139 245.9246 113.7989 14.83490707155323
Epoch (UTC): 15 October 2019 16:40:16
Eccentricity: 0.0035139
inclination: 48.1683°
perigee height: 594 km
apogee height: 643 km
right ascension of ascending node: 15.9063°
argument of perigee: 245.9246°
revolutions per day: 14.83490707
mean anomaly at epoch: 113.7989°
orbit number at epoch: 15532

The dashed part of the orbit path shows where the satellite is in the earth's shadow,  

DLR